This demonstration page uses our WeatherBlox Daily Observations layout. Learn more.

Hourly Observations for October 26, 2016

Temp ( °F °C ) Dew Point ( °F °C ) Humidity (%) Winds ( mph kmh ) Pressure ( in mb ) Visibility ( mi km ) Precip ( " mm )
12:15 am 00:15 Clear 54 12 49 9.7 86 86 W 8 13 29.97 1015 10 16.09344 0 0
12:35 am 00:35 Clear 53 11.6 49 9.5 87 87 W 8 13 29.97 1015 10 16.09344 0 0
12:55 am 00:55 Clear 53 11.5 49 9.5 88 88 W 10 17 29.97 1015 10 16.09344 0 0
1:15 am 01:15 Clear 54 12 49 9.5 85 85 WNW 8 13 29.97 1015 10 16.09344 0 0
1:35 am 01:35 Clear 53 11.5 48 8.8 84 84 WNW 7 11 30 1016 10 16.09344 0 0
1:55 am 01:55 Clear 51 10.4 46 7.9 85 85 WNW 6 9 30 1016 10 16.09344 0 0
2:15 am 02:15 Clear 50 10.1 46 7.9 86 86 WNW 7 11 30 1016 10 16.09344 0 0
2:35 am 02:35 Clear 52 10.9 47 8.1 83 83 WNW 8 13 30 1016 10 16.09344 0 0
2:55 am 02:55 Clear 52 11 47 8.1 82 82 WNW 6 9 30 1016 10 16.09344 0 0
3:15 am 03:15 Clear 52 11.3 47 8.5 83 83 WNW 9 15 30 1016 10 16.09344 0 0
3:35 am 03:35 Clear 51 10.8 47 8.1 84 84 NW 9 15 30.03 1017 10 16.09344 0 0
3:55 am 03:55 Clear 51 10.7 46 7.8 82 82 NW 8 13 30.03 1017 10 16.09344 0 0
4:15 am 04:15 Clear 50 10.1 45 7.3 83 83 NW 6 9 30.03 1017 10 16.09344 0 0
4:35 am 04:35 Clear 48 8.8 44 6.6 86 86 NW 8 13 30.09 1019 10 16.09344 0 0
4:55 am 04:55 Clear 48 9 44 6.8 86 86 NW 6 9 30.09 1019 10 16.09344 0 0
5:15 am 05:15 Clear 48 8.7 44 6.4 86 86 NW 6 9 30.09 1019 10 16.09344 0 0
5:35 am 05:35 Clear 47 8.6 43 6.2 85 85 NW 7 11 30.09 1019 10 16.09344 0 0
5:55 am 05:55 Clear 48 9.1 43 6.3 83 83 NW 6 9 30.09 1019 10 16.09344 0 0
6:15 am 06:15 Clear 47 8.5 43 6 84 84 NW 7 11 30.09 1019 10 16.09344 0 0
6:35 am 06:35 Clear 47 8.5 43 6 84 84 NW 7 11 30.12 1020 10 16.09344 0 0
6:55 am 06:55 Clear 46 7.5 42 5.5 87 87 NW 7 11 30.12 1020 10 16.09344 0 0
7:15 am 07:15 Clear 46 8 42 5.6 85 85 NW 8 13 30.12 1020 10 16.09344 0 0
7:35 am 07:35 Clear 45 7.1 41 4.8 85 85 NW 8 13 30.12 1020 10 16.09344 0 0
7:55 am 07:55 Clear 46 7.8 42 5.5 86 86 NW 8 13 30.12 1020 10 16.09344 0 0
8:15 am 08:15 Sunny 46 7.9 42 5.5 85 85 NW 7 11 30.15 1021 10 16.09344 0 0
8:35 am 08:35 Sunny 47 8.2 42 5.7 84 84 NW 7 11 30.15 1021 10 16.09344 0 0
8:55 am 08:55 Sunny 48 8.9 43 5.9 82 82 WNW 7 11 30.15 1021 10 16.09344 0 0
9:15 am 09:15 Sunny 50 10 44 6.6 80 80 NW 6 9 30.15 1021 10 16.09344 0 0
9:35 am 09:35 Sunny 52 10.9 44 6.7 76 76 NW 12 19 30.12 1020 10 16.09344 0 0
9:55 am 09:55 Sunny 54 12 45 7 72 72 NW 8 13 30.12 1020 10 16.09344 0 0
10:15 am 10:15 Sunny 56 13.6 44 6.6 63 63 NNW 9 15 30.12 1020 10 16.09344 0 0
10:35 am 10:35 Sunny 58 14.3 44 6.5 60 60 NNW 12 19 30.09 1019 10 16.09344 0 0
10:55 am 10:55 Sunny 60 15.6 44 6.5 55 55 N 13 20 30.09 1019 10 16.09344 0 0
11:15 am 11:15 Sunny 61 16.3 44 6.4 52 52 N 9 15 30.12 1020 10 16.09344 0 0
11:35 am 11:35 Sunny 63 17.1 43 6.2 49 49 N 14 22 30.12 1020 10 16.09344 0 0
11:55 am 11:55 Sunny 64 17.7 43 6.2 47 47 N 13 20 30.09 1019 10 16.09344 0 0
12:15 pm 12:15 Sunny 66 19.1 43 6 43 43 N 8 13 30.09 1019 10 16.09344 0 0
12:35 pm 12:35 Sunny 68 20.1 42 5.3 38 38 NNW 10 17 30.09 1019 10 16.09344 0 0
12:55 pm 12:55 Sunny 69 20.8 40 4.5 34 34 N 9 15 30.09 1019 10 16.09344 0 0
1:15 pm 13:15 Sunny 71 21.4 40 4.2 33 33 NNW 9 15 30.06 1018 10 16.09344 0 0
1:35 pm 13:35 Sunny 72 22.2 39 4.1 31 31 N 10 17 30.03 1017 10 16.09344 0 0
1:55 pm 13:55 Sunny 73 22.6 38 3.5 29 29 NNW 12 19 30.03 1017 10 16.09344 0 0
2:15 pm 14:15 Sunny 74 23.2 38 3.4 28 28 N 12 19 30.03 1017 10 16.09344 0 0
2:35 pm 14:35 Sunny 74 23.6 37 2.6 25 25 N 12 19 30.03 1017 10 16.09344 0 0
2:55 pm 14:55 Sunny 75 23.7 37 2.5 25 25 NNW 7 11 30.03 1017 10 16.09344 0 0
3:15 pm 15:15 Sunny 76 24.3 36 2.1 23 23 N 3 6 30.03 1017 10 16.09344 0 0
3:35 pm 15:35 Sunny 75 24.1 35 1.8 23 23 NNW 7 11 30.03 1017 10 16.09344 0 0
3:55 pm 15:55 Sunny 76 24.5 35 1.8 23 23 NNW 10 17 30 1016 10 16.09344 0 0
4:15 pm 16:15 Sunny 76 24.3 34 1.1 22 22 N 8 13 30.03 1017 10 16.09344 0 0
4:35 pm 16:35 Sunny 76 24.5 34 1 21 21 N 5 7 30 1016 10 16.09344 0 0
4:55 pm 16:55 Sunny 76 24.4 32 0.2 20 20 NNW 13 20 30 1016 10 16.09344 0 0
5:15 pm 17:15 Sunny 75 24 33 0.4 21 21 NNW 7 11 30.03 1017 10 16.09344 0 0
5:35 pm 17:35 Sunny 74 23.6 33 0.6 22 22 N 6 9 30.03 1017 10 16.09344 0 0
5:55 pm 17:55 Sunny 73 22.7 35 1.4 25 25 Calm 30.03 1017 10 16.09344 0 0
6:15 pm 18:15 Sunny 71 21.4 35 1.6 27 27 Calm 30.03 1017 10 16.09344 0 0
6:35 pm 18:35 Sunny 67 19.7 35 1.4 30 30 Calm 30.06 1018 10 16.09344 0 0
6:55 pm 18:55 Clear 65 18.3 35 1.9 34 34 Calm 30.06 1018 10 16.09344 0 0
7:15 pm 19:15 Clear 59 15.2 34 1.3 39 39 E 5 7 30.09 1019 10 16.09344 0 0
7:35 pm 19:35 Clear 59 15 35 1.5 40 40 E 5 7 30.09 1019 10 16.09344 0 0
7:55 pm 19:55 Clear 56 13.2 35 1.6 46 46 E 6 9 30.12 1020 7 11.265408 0 0
8:15 pm 20:15 Clear 57 13.9 36 2 45 45 SE 5 7 30.09 1019 10 16.09344 0 0
8:35 pm 20:35 Clear 54 12.2 35 1.8 49 49 SE 5 7 30.12 1020 10 16.09344 0 0
8:55 pm 20:55 Clear 53 11.5 35 1.8 52 52 SE 3 6 30.12 1020 10 16.09344 0 0
9:15 pm 21:15 Clear 53 11.9 35 1.7 50 50 SE 3 6 30.12 1020 10 16.09344 0 0
9:35 pm 21:35 Clear 55 12.7 36 2.3 49 49 S 5 7 30.15 1021 10 16.09344 0 0
9:55 pm 21:55 Clear 54 12.4 36 2.3 50 50 SSE 3 6 30.15 1021 10 16.09344 0 0
10:15 pm 22:15 Clear 54 12.4 37 2.5 51 51 SSE 6 9 30.15 1021 10 16.09344 0 0
10:35 pm 22:35 Clear 54 12 37 2.5 53 53 S 6 9 30.15 1021 10 16.09344 0 0
10:55 pm 22:55 Clear 54 12.3 37 2.7 52 52 S 7 11 30.15 1021 10 16.09344 0 0
11:15 pm 23:15 Clear 53 11.6 37 2.9 55 55 S 7 11 30.15 1021 10 16.09344 0 0
11:35 pm 23:35 Clear 53 11.6 37 2.8 55 55 S 7 11 30.15 1021 10 16.09344 0 0
11:55 pm 23:55 Clear 54 12.3 37 3 53 53 S 8 13 30.15 1021 10 16.09344 0 0

Powered by AerisWeather